GFSFLT1_sfc_temp_003.txt.gz
Temp
59 59 59 58 58 59 59 58 58 57 56 54 53 53 53 53 54 54 56 55 56 53 52 52 51 50 49 48 49 48 48 48
56 56 55 56 56 57 58 58 57 55 53 53 52 53 53 53 53 55 55 56 55 53 52 52 51 50 50 49 48 48 47 46
56 56 54 57 57 57 57 58 58 56 54 54 54 52 52 53 53 53 55 56 56 54 53 53 52 50 49 48 48 46 46 45
56 57 56 55 56 56 58 59 58 57 56 53 52 51 51 50 52 51 54 55 57 55 54 53 52 51 50 48 47 47 45 44
57 57 56 55 56 55 56 56 56 57 56 54 52 54 55 59 57 56 56 52 56 57 56 52 51 48 47 46 47 45 44 42
55 56 55 53 54 54 53 55 56 57 55 54 52 51 54 56 54 49 51 51 51 54 55 53 49 49 49 48 46 45 44 43
56 55 54 54 53 53 54 55 56 57 56 54 51 49 51 50 50 48 50 46 47 48 49 50 48 48 47 45 46 47 46 45
52 50 53 53 52 51 53 52 53 53 52 52 53 51 48 47 48 48 46 43 43 43 46 45 45 45 45 47 45 45 45 43
52 53 51 50 50 50 50 51 51 52 51 51 50 48 47 47 45 45 42 41 40 42 43 45 45 44 45 46 44 43 43 42
50 49 50 50 50 51 49 50 51 50 49 47 47 46 46 45 43 41 40 41 43 41 42 44 44 44 44 44 43 42 42 43
50 50 51 52 51 49 48 49 48 48 47 47 48 46 44 43 41 41 41 41 42 43 44 45 45 44 43 43 42 43 41 41
49 50 51 51 50 49 48 48 47 46 45 45 44 45 42 41 40 40 41 43 44 44 44 45 43 41 42 41 41 40 39 39
50 50 50 49 48 48 47 46 44 45 45 44 45 42 41 40 40 41 42 44 45 45 44 44 43 42 41 40 38 39 37 36
50 50 51 50 48 47 47 46 44 44 44 44 43 39 38 38 41 43 44 45 45 44 44 42 41 40 39 38 37 37 36 36
49 49 48 47 47 47 46 43 43 43 42 41 38 38 38 38 39 41 40 43 42 42 42 41 40 39 38 38 36 33 31 32
47 48 47 46 45 44 43 43 42 42 40 39 38 41 41 39 39 40 41 42 43 41 39 38 37 37 38 32 32 32 31 31
48 48 47 45 45 43 42 42 41 40 40 40 42 42 41 41 40 41 40 40 40 39 37 35 34 37 36 37 35 30 30 30
46 46 45 44 42 42 40 39 40 40 39 41 42 41 41 40 40 40 39 37 36 35 34 33 32 32 37 37 36 30 29 29
48 47 43 43 42 40 38 39 39 39 39 38 39 40 39 37 37 36 34 33 33 32 31 31 30 32 35 35 34 29 27 27

GFSFLT1_sfc_temp_006.txt.gz
Temp
55 55 55 55 55 57 58 57 56 55 54 52 52 51 52 52 52 52 54 54 54 52 51 51 50 49 48 47 47 46 47 47
52 53 53 54 54 56 57 56 56 54 52 52 51 52 52 52 52 53 53 54 54 53 52 51 50 50 51 48 47 47 46 45
56 55 53 55 56 56 56 57 56 54 52 52 51 50 51 51 51 52 53 53 54 54 53 53 51 51 48 48 46 45 45 44
53 54 53 54 55 54 55 55 55 54 54 52 52 50 51 51 54 52 54 53 54 54 55 54 52 51 51 50 48 46 45 43
55 54 52 52 53 53 54 54 54 56 54 52 50 49 49 52 52 53 55 52 51 53 54 52 52 52 51 48 48 46 44 42
51 52 54 49 50 50 50 53 54 53 52 51 50 50 49 50 50 48 50 50 48 50 51 51 49 46 46 48 46 44 46 43
53 51 52 50 50 50 50 52 53 53 51 50 48 46 46 47 49 46 47 46 44 44 45 45 44 43 43 43 45 45 42 44
50 49 49 50 50 50 51 50 51 51 49 48 47 46 46 45 47 47 45 43 40 39 41 42 42 41 43 44 43 43 43 42
49 50 48 49 50 49 48 48 49 48 48 48 47 47 46 47 47 45 41 40 39 40 41 42 41 42 42 43 42 42 42 41
49 51 51 51 52 51 48 47 48 48 46 45 45 45 46 47 46 41 39 39 41 41 41 41 42 43 44 43 41 40 39 39
51 51 51 52 50 48 48 47 47 47 45 45 46 45 46 46 42 39 39 39 41 41 42 42 43 43 42 42 41 41 40 40
49 49 49 49 48 48 47 46 46 45 43 43 43 45 45 43 38 38 39 40 41 42 43 43 42 43 42 40 40 40 39 39
49 48 48 47 47 47 46 45 44 43 43 43 43 41 40 37 38 39 40 42 43 42 44 43 43 41 40 39 38 38 37 36
48 50 48 47 47 46 46 45 43 43 43 41 39 38 36 36 37 38 40 41 42 43 43 44 43 41 40 38 36 36 35 34
46 46 47 46 47 45 44 43 43 42 41 38 36 35 35 35 36 37 39 40 42 42 42 41 39 38 38 37 36 33 32 33
45 45 49 48 47 45 42 43 42 40 39 39 38 40 39 37 38 38 39 39 40 40 40 38 37 37 38 34 33 32 31 30
44 45 46 46 45 42 42 41 40 40 39 39 40 42 42 40 40 39 39 39 39 39 36 33 32 36 37 37 36 31 31 31
43 46 47 46 43 41 40 40 39 39 41 41 39 41 41 40 39 38 37 35 34 33 32 32 31 32 36 36 36 31 30 29
45 47 46 42 42 40 37 37 37 37 36 37 39 38 36 35 35 34 33 33 32 30 30 30 29 31 34 34 33 29 27 27

GFSFLT1_sfc_temp_009.txt.gz
Temp
66 67 68 69 69 69 71 70 69 67 68 67 68 67 68 67 68 68 66 67 65 65 66 64 65 65 64 63 61 63 63 64
65 64 64 65 66 68 70 69 67 67 67 67 68 67 67 68 69 67 65 66 65 64 65 65 64 62 63 63 62 59 61 61
64 65 65 66 67 67 66 65 65 65 67 66 65 64 66 65 65 65 66 64 65 64 63 64 64 63 62 62 60 61 60 61
66 66 66 64 64 62 64 64 65 64 64 66 66 65 65 66 67 67 66 64 64 63 62 62 62 62 60 62 61 59 60 60
66 65 63 62 61 62 64 64 65 64 63 62 60 60 60 62 62 63 63 62 62 62 60 60 60 60 59 60 62 60 59 59
60 60 60 60 60 60 61 63 63 62 61 60 60 59 60 60 60 59 59 60 60 59 58 57 57 58 58 57 57 55 57 57
60 60 61 61 61 60 61 62 62 62 61 59 58 56 56 57 58 58 59 59 58 55 55 54 53 53 52 53 53 52 52 53
59 59 60 60 60 60 61 61 61 60 59 58 57 56 56 56 56 56 56 56 55 53 52 52 51 51 51 51 50 48 47 46
58 58 58 60 60 60 59 60 60 60 58 57 56 56 56 55 55 55 54 52 52 51 51 52 52 51 51 51 49 43 42 41
58 59 60 59 59 59 57 57 59 59 57 55 55 54 53 53 53 52 51 49 51 51 52 51 51 51 50 48 46 42 41 38
60 61 60 59 59 58 57 58 57 56 55 54 53 53 52 51 49 48 48 49 50 50 50 51 50 50 50 47 47 46 45 45
59 59 59 58 57 58 57 57 56 55 53 51 51 50 49 48 47 47 48 49 50 49 50 49 47 45 46 47 47 47 46 46
58 57 57 57 57 58 56 55 53 51 51 51 49 48 47 46 46 47 48 48 49 49 49 46 44 45 48 46 45 45 45 44
56 56 55 56 55 54 53 52 50 52 50 49 47 46 46 45 45 46 47 47 47 47 45 42 42 44 45 45 44 44 43 43
54 53 54 54 53 51 50 50 51 49 48 47 46 45 45 45 45 45 46 46 46 43 42 43 41 43 44 44 44 42 42 41
50 50 50 52 51 50 49 50 48 47 47 46 45 46 46 43 45 46 46 47 46 46 44 43 42 42 43 41 41 40 40 39
47 47 48 50 49 48 47 47 46 46 45 44 45 45 46 46 45 45 45 44 43 42 41 39 39 40 36 37 37 39 38 38
46 50 50 49 49 46 46 46 45 45 44 44 45 44 44 43 43 43 42 41 41 40 39 39 38 38 35 35 35 37 37 36
48 50 49 49 49 47 45 45 44 44 43 44 44 43 41 42 41 40 40 40 39 38 37 37 37 37 33 33 33 35 34 34

GFSFLT1_sfc_temp_012.txt.gz
Temp
80 81 81 82 81 80 82 82 79 78 81 79 81 80 80 80 81 80 77 77 74 73 74 73 73 73 73 73 71 73 72 71
79 77 77 78 77 77 79 77 73 79 80 77 79 77 78 79 79 75 74 75 73 72 73 72 72 71 71 70 70 68 68 71
76 77 76 75 74 75 75 75 75 76 79 77 75 73 76 75 76 75 75 72 72 72 70 70 70 70 69 68 67 67 68 69
75 75 74 73 72 73 74 74 74 73 73 77 77 77 76 75 72 73 72 71 71 70 69 69 68 68 68 68 67 66 64 68
73 72 71 71 70 72 73 73 73 72 71 72 68 70 67 69 69 70 70 70 69 69 68 67 66 67 65 66 68 66 65 63
70 70 71 71 71 70 72 72 72 71 70 68 69 67 68 69 68 66 67 68 68 68 67 64 64 65 64 63 62 62 63 62
69 70 71 72 72 70 70 71 70 70 69 67 64 64 64 64 65 64 65 65 66 66 65 62 61 61 60 60 59 56 56 55
69 69 71 70 69 69 69 70 69 69 67 66 66 65 64 63 62 62 60 62 62 61 61 60 60 59 59 56 50 48 46 43
68 69 70 69 68 68 68 69 69 69 67 66 66 64 64 62 61 60 59 59 59 59 59 59 58 58 57 55 50 48 43 41
67 69 69 68 67 67 66 67 68 68 65 64 62 62 60 58 58 58 58 58 59 57 57 56 56 55 54 52 48 46 47 46
68 69 68 68 68 67 66 66 66 65 64 62 61 59 59 57 56 55 55 56 56 54 54 55 54 51 48 46 47 49 47 46
66 67 67 67 66 67 66 65 64 63 62 60 59 57 56 56 55 55 55 55 55 55 54 52 48 44 43 44 47 49 49 49
66 66 65 65 65 64 64 62 61 61 60 59 57 55 56 55 54 53 53 52 54 53 49 46 43 43 47 45 46 48 48 47
65 64 63 62 62 61 61 60 59 59 59 58 57 55 54 52 52 51 52 50 49 47 46 44 44 46 47 47 47 48 48 48
61 60 60 59 60 60 58 57 58 58 57 56 55 52 50 51 52 52 52 51 50 49 49 48 48 48 48 48 48 47 46 47
56 56 56 59 58 57 58 57 56 56 55 54 52 52 52 52 52 52 51 51 51 50 49 48 47 47 46 43 44 44 45 44
49 50 56 57 56 56 55 56 56 55 54 52 52 52 52 51 50 50 49 49 49 48 47 46 45 46 36 36 37 41 42 43
49 54 57 56 57 55 55 55 55 54 52 52 51 50 49 49 49 49 48 47 47 45 45 45 43 44 35 34 34 39 40 41
54 57 56 57 57 57 56 56 54 52 51 51 50 49 48 48 48 47 46 46 45 44 44 43 42 43 35 33 32 37 39 39

GFSFLT1_sfc_temp_015.txt.gz
Temp
86 86 87 87 86 85 86 85 84 82 84 82 83 82 82 83 82 82 79 78 76 75 75 74 74 74 74 74 72 73 73 72
84 82 83 83 82 83 84 81 78 82 83 79 80 78 80 81 82 79 77 77 75 73 74 73 73 72 71 71 71 69 69 72
80 79 79 78 79 80 80 79 78 79 81 79 77 75 78 78 79 77 77 75 73 72 71 71 71 70 69 69 68 67 69 70
78 77 77 77 76 77 78 78 77 76 76 80 78 78 78 77 77 75 75 73 72 71 70 69 68 68 68 68 67 66 65 68
77 77 75 74 74 76 77 76 77 76 74 74 71 72 70 72 72 73 72 71 71 71 70 68 67 65 64 65 68 65 64 62
74 75 75 75 75 74 75 76 75 75 74 71 69 68 69 71 70 69 68 69 69 69 68 66 64 64 63 62 61 61 61 59
74 75 76 75 75 74 74 74 75 74 72 71 68 66 67 66 66 65 66 65 66 66 65 63 62 62 61 61 56 55 53 52
73 74 75 73 73 73 73 74 73 74 72 70 69 68 66 65 64 63 60 61 61 62 61 61 61 61 57 54 51 50 48 46
72 72 73 73 73 73 71 71 72 73 71 69 69 67 65 64 62 59 59 59 59 60 60 60 56 55 52 49 46 44 44 46
71 73 73 72 72 72 70 69 70 71 69 68 65 64 62 60 59 58 58 58 59 59 56 53 53 50 50 51 49 47 48 47
71 72 71 71 71 70 70 69 69 67 65 66 64 62 61 59 58 57 57 57 58 57 55 53 50 50 49 48 47 48 47 47
71 71 70 71 71 70 69 68 67 66 65 64 62 61 59 59 58 57 54 54 54 53 53 51 48 47 47 46 44 45 44 46
68 67 66 67 67 68 67 66 65 64 63 62 61 60 60 58 56 52 53 51 53 53 50 46 48 48 47 44 45 46 46 45
64 64 65 63 64 65 65 64 62 63 62 61 60 59 57 53 51 52 53 53 52 53 52 49 48 48 50 50 50 48 48 47
61 62 63 63 63 64 63 62 61 60 61 59 58 57 55 53 54 53 53 54 53 52 52 51 50 50 50 50 48 46 46 47
59 59 60 61 63 62 62 60 60 60 59 58 57 56 55 53 53 52 52 52 52 52 51 50 50 50 49 44 44 42 42 43
56 58 60 61 61 60 60 60 59 59 57 56 57 54 51 51 51 51 51 51 50 50 49 48 47 49 36 36 36 39 40 41
55 58 60 60 61 61 60 60 60 59 57 57 55 52 50 50 50 51 50 49 49 48 47 47 46 45 36 35 34 38 37 39
57 59 60 61 62 62 62 61 59 58 57 55 53 52 50 50 50 50 49 48 47 46 46 45 43 43 36 34 33 36 37 38

GFSFLT1_sfc_temp_021.txt.gz
Temp
70 69 70 70 68 68 68 66 63 64 64 65 63 63 63 63 62 63 64 62 62 59 59 57 57 56 55 54 53 55 53 54
68 67 66 65 67 68 65 63 62 63 62 60 60 59 61 62 63 64 63 62 61 59 57 56 55 54 53 53 52 51 54 53
66 64 61 61 62 63 64 64 63 63 61 60 60 58 60 60 60 61 61 59 59 60 55 54 54 52 52 51 50 50 49 50
64 64 59 59 60 61 64 63 63 61 61 60 59 59 58 58 58 59 58 57 58 56 54 52 51 51 50 49 49 48 45 47
64 61 59 59 58 60 62 63 63 62 61 58 57 54 54 55 54 54 55 55 55 56 54 52 50 50 48 48 50 46 45 42
60 60 61 60 60 60 61 63 62 61 60 59 55 54 54 54 52 52 51 52 53 54 54 50 48 48 46 45 45 47 47 45
62 62 62 60 60 59 59 61 61 60 61 58 54 53 53 50 49 48 48 49 49 50 50 48 47 45 45 45 46 45 44 44
59 60 63 62 58 58 60 59 60 59 58 56 54 52 50 48 47 46 46 46 46 46 47 45 44 45 44 43 43 44 43 41
60 61 60 59 59 58 58 59 60 58 57 54 53 52 49 48 48 47 46 45 45 46 45 45 46 46 44 43 42 42 41 39
62 59 58 57 57 57 56 57 57 58 54 53 52 52 50 49 48 46 44 44 49 45 44 44 47 46 44 43 41 39 39 38
57 57 57 57 56 56 56 57 56 54 53 53 51 50 50 48 45 44 44 44 45 44 44 44 43 43 42 41 39 40 39 38
55 56 56 56 56 56 55 54 53 52 52 51 50 49 49 46 45 45 45 44 44 45 44 43 43 41 41 40 39 40 39 38
54 55 55 54 54 54 54 52 52 51 52 51 50 49 48 46 45 45 45 43 44 44 44 42 42 41 40 39 38 37 36 35
53 53 52 52 53 53 52 52 51 52 52 50 48 48 47 45 44 44 45 44 43 43 42 41 41 40 40 39 38 36 35 36
51 50 50 51 53 52 52 52 52 52 51 49 49 47 48 45 44 44 45 44 43 42 42 41 41 41 39 38 37 34 33 34
50 49 49 50 51 51 51 51 51 51 50 49 48 49 48 45 45 45 45 44 43 42 41 40 40 40 38 33 32 30 30 30
50 50 52 52 52 51 52 50 50 51 50 50 50 47 46 45 43 45 42 43 41 40 39 39 37 40 36 36 33 29 30 30
49 50 51 51 50 51 47 48 49 48 49 47 47 45 45 44 43 43 42 41 39 38 37 36 35 33 36 36 35 30 28 27
50 50 50 50 49 48 48 48 47 47 46 45 45 44 43 41 41 40 40 39 38 37 36 33 32 36 37 37 35 28 27 27

GFSFLT1_sfc_temp_024.txt.gz
Temp
65 64 66 65 64 63 62 61 61 62 60 60 59 59 59 59 59 59 59 58 58 55 56 53 54 53 52 51 50 50 49 49
62 61 61 62 64 62 59 59 58 59 57 56 57 56 57 58 59 59 59 59 58 56 53 52 51 50 49 50 49 48 50 48
61 58 56 56 58 58 59 59 59 59 58 56 57 56 56 56 57 57 57 57 56 57 51 50 49 49 48 47 47 45 46 45
59 59 55 54 55 56 59 59 59 58 58 57 56 55 54 54 52 52 55 55 54 52 50 48 47 47 45 44 45 44 43 44
59 58 56 57 56 57 59 59 59 59 58 57 55 52 51 50 49 49 50 51 51 52 49 47 46 45 44 44 47 46 47 43
57 58 58 57 58 57 57 59 59 58 56 54 52 51 50 49 48 48 49 49 50 50 49 46 45 44 43 42 41 41 41 40
57 57 58 57 55 55 55 56 56 56 55 53 51 50 48 47 47 46 46 46 45 46 47 44 43 42 41 41 40 40 39 39
55 56 56 56 54 54 56 56 55 55 53 52 50 49 48 47 46 45 44 43 43 43 43 43 42 43 43 45 42 41 39 38
55 55 54 54 55 54 54 55 54 53 52 51 50 49 47 47 47 45 43 42 43 44 43 43 43 44 44 42 39 38 38 36
53 54 53 53 53 54 54 56 53 53 54 50 49 48 48 46 45 43 42 43 46 44 42 42 42 43 41 40 38 37 37 37
53 53 54 54 55 52 52 53 52 51 50 49 50 48 47 45 43 43 43 43 43 42 43 42 41 41 40 39 37 38 37 36
53 53 54 54 52 52 50 50 50 50 50 49 48 47 47 44 43 43 43 43 43 43 43 41 40 39 39 37 36 36 35 34
51 52 51 50 50 50 50 50 50 50 49 49 48 47 46 43 43 43 42 42 43 45 43 41 41 39 38 36 35 35 34 33
50 48 49 49 50 50 50 49 48 49 49 47 46 47 45 44 42 42 42 42 43 42 42 41 41 39 37 36 35 33 32 32
47 47 47 48 49 49 49 49 48 47 47 47 45 44 45 43 41 43 43 43 41 43 42 42 40 38 37 35 34 31 30 31
48 48 46 47 48 49 48 47 47 47 47 45 44 45 44 43 43 43 41 41 42 42 42 41 39 36 37 32 32 31 30 29
46 47 48 49 48 46 46 46 46 46 45 44 45 43 43 41 41 40 39 40 40 39 39 38 35 38 36 36 34 29 30 29
47 47 48 47 45 46 45 45 46 44 43 43 42 41 41 40 40 39 40 35 35 36 36 35 32 32 36 37 36 31 29 27
47 46 45 45 45 45 45 45 44 42 41 41 41 40 39 38 36 37 36 34 34 35 32 31 31 34 35 34 33 27 26 27

GFSFLT1_sfc_temp_027.txt.gz
Temp
59 60 60 60 59 60 59 61 61 59 56 57 58 59 58 57 55 56 55 55 54 53 53 53 52 51 50 49 47 48 47 46
57 59 60 59 57 58 58 58 57 57 55 55 55 52 53 53 55 54 53 56 55 51 50 49 48 47 46 46 45 45 45 45
57 56 55 55 56 57 58 58 59 57 57 55 55 53 52 52 51 52 54 53 52 51 47 47 46 46 45 44 43 43 43 43
55 55 54 53 55 56 58 57 58 57 57 55 54 54 52 50 49 48 50 50 50 49 47 46 45 44 43 42 42 41 40 42
56 54 53 53 54 55 56 57 57 57 56 55 54 52 49 48 47 47 48 49 48 48 47 46 44 43 42 42 43 40 40 37
54 55 56 56 55 53 54 55 55 55 54 53 51 50 49 48 47 47 48 47 47 47 46 44 43 42 41 41 40 39 39 39
55 55 56 55 54 52 52 53 53 53 53 52 51 48 47 46 45 45 44 44 44 44 45 43 42 41 41 40 39 39 38 37
53 56 56 56 53 51 52 53 53 52 51 50 49 48 47 46 46 44 43 42 42 42 43 41 41 41 41 40 39 38 37 36
54 52 52 52 53 52 52 52 52 51 50 49 48 48 47 46 46 43 42 42 42 43 42 42 42 42 41 40 38 37 36 35
50 51 51 51 52 52 51 51 50 50 49 48 47 47 46 45 44 43 41 41 44 42 41 41 41 42 40 39 37 36 36 35
50 50 51 52 53 51 50 50 50 50 49 48 48 46 46 45 43 42 41 41 41 42 41 41 42 42 40 38 36 36 35 34
49 51 52 52 51 49 48 48 49 48 47 47 46 45 45 44 42 41 41 41 41 43 43 42 41 40 39 37 36 35 34 33
49 52 52 51 49 48 48 47 47 47 46 45 45 44 44 43 41 41 40 40 43 41 41 41 41 39 39 38 36 35 33 31
47 47 48 48 48 49 48 46 46 45 45 44 43 43 42 41 41 41 40 41 40 40 40 40 39 40 39 36 35 33 31 31
45 46 46 48 49 46 45 45 44 45 44 43 42 41 42 41 40 40 40 40 39 38 39 39 40 39 38 35 33 31 31 31
47 46 48 46 45 44 44 44 44 44 43 42 41 41 41 40 40 40 40 38 39 40 40 38 38 37 36 32 32 32 30 29
47 46 46 45 44 43 45 44 44 43 42 41 41 41 40 39 38 37 37 40 38 37 36 35 33 37 36 37 35 29 30 29
44 44 45 43 43 44 43 43 43 41 41 41 40 39 38 37 37 36 37 36 34 34 32 32 31 32 36 35 34 30 28 27
43 43 43 43 43 43 42 42 41 39 39 39 39 38 37 36 35 37 37 36 31 30 30 31 30 32 34 34 31 26 25 26

GFSFLT1_sfc_temp_030.txt.gz
Temp
56 56 57 57 58 60 60 58 57 57 56 56 57 55 53 53 52 52 52 54 55 54 52 48 48 47 46 46 45 46 45 43
54 55 56 57 56 59 59 58 58 57 56 53 51 49 50 50 51 52 55 54 51 49 47 47 47 45 44 44 43 43 43 43
54 54 54 55 55 57 58 57 56 56 54 52 52 49 49 49 49 49 50 50 50 49 46 45 45 44 43 42 41 41 41 41
53 54 53 54 54 55 57 56 56 55 54 54 50 50 49 48 47 47 48 49 48 47 47 45 44 43 41 40 40 39 38 40
53 53 53 52 52 53 54 55 54 55 54 52 51 49 47 46 46 45 46 48 47 47 46 45 43 42 41 41 42 40 39 37
52 51 52 52 52 53 52 54 54 54 53 52 49 47 46 45 45 45 45 45 46 46 45 44 42 42 41 40 39 39 38 37
53 53 54 52 51 54 54 55 53 52 52 51 50 47 45 45 45 44 44 43 43 43 44 42 41 41 40 39 39 38 37 36
51 52 54 54 53 53 52 52 51 51 50 49 48 47 47 47 46 44 43 42 41 41 41 41 40 41 40 39 38 37 36 35
52 53 51 50 51 50 51 51 50 49 49 48 48 48 45 45 45 43 42 41 41 42 41 41 41 41 40 40 38 37 36 35
50 49 49 49 49 49 49 50 49 49 49 48 47 46 44 43 43 42 41 41 43 41 40 40 40 41 42 41 39 36 35 35
48 48 49 49 49 49 49 49 48 49 47 45 46 44 43 43 42 41 41 40 40 40 40 42 42 40 40 40 38 38 35 35
47 48 49 49 49 49 47 47 48 47 45 44 43 42 42 42 41 41 40 39 40 40 40 40 38 38 40 37 37 36 34 33
46 48 48 48 48 47 47 48 47 44 43 43 43 42 42 41 40 40 39 38 39 39 39 38 38 40 39 36 36 35 33 32
45 46 47 49 47 46 49 45 43 43 43 42 41 41 40 39 38 38 39 38 38 37 38 39 40 38 37 38 35 33 32 31
44 45 47 45 47 48 44 44 43 43 43 41 40 39 38 38 38 38 38 38 36 36 40 38 38 38 39 36 33 32 31 31
45 44 44 47 45 44 44 43 43 43 42 40 39 39 39 38 37 36 36 36 37 39 39 37 34 35 35 32 32 31 29 29
45 45 47 46 44 42 43 43 42 42 40 39 39 39 38 37 36 35 35 36 37 36 34 32 31 35 36 36 33 29 29 28
46 46 46 43 42 42 42 42 41 40 39 39 39 38 37 36 35 34 35 34 31 31 31 31 29 30 35 35 33 29 27 26
45 43 42 42 41 41 40 40 39 38 38 38 38 36 35 34 34 37 33 34 35 29 29 29 29 31 33 33 32 26 25 25

GFSFLT1_sfc_temp_033.txt.gz
Temp
61 62 62 65 66 66 64 61 59 56 55 56 57 59 59 62 63 63 63 63 61 61 61 59 60 60 58 58 57 58 56 55
61 61 62 63 63 63 63 57 56 57 57 57 60 59 61 61 63 62 61 61 61 61 60 59 59 57 55 55 56 54 56 54
60 61 62 64 61 58 60 63 61 64 66 65 65 63 62 61 61 60 61 60 60 60 59 58 57 58 55 54 53 53 54 53
59 60 61 62 61 63 65 65 65 66 65 63 61 60 60 60 60 61 60 59 59 59 58 59 58 58 57 55 54 51 51 53
60 60 60 61 61 63 65 65 65 64 63 63 62 64 62 61 60 61 61 58 58 59 57 57 56 57 55 55 56 53 51 49
60 61 62 63 62 63 64 64 63 63 64 63 63 60 59 59 59 57 57 57 56 56 56 56 55 55 54 53 52 50 51 49
61 62 62 62 62 61 61 64 61 62 62 61 60 59 58 60 59 59 58 58 57 56 55 55 54 54 52 52 51 50 49 49
61 60 60 61 61 62 62 63 61 60 60 60 60 60 59 59 59 58 57 57 57 57 54 53 53 52 51 51 50 49 49 47
60 60 61 62 61 61 62 62 60 59 59 60 60 59 59 57 55 55 55 55 54 53 52 52 51 51 51 50 50 49 48 47
60 60 60 59 59 59 59 60 58 57 59 59 56 56 55 55 55 54 53 53 54 53 52 51 51 51 51 50 49 48 48 47
58 58 57 58 59 58 58 58 55 57 57 56 55 55 54 54 53 52 52 53 53 52 52 52 51 50 49 47 45 47 46 46
56 56 57 58 57 57 56 54 57 56 54 54 54 53 53 52 52 52 52 51 52 50 50 49 48 46 45 46 46 45 44 44
55 56 57 57 57 54 52 55 54 53 55 54 53 52 52 52 51 51 50 49 49 48 48 47 46 44 43 44 44 44 43 41
54 54 55 56 53 54 55 53 53 54 55 54 52 51 50 49 49 49 48 47 47 46 46 45 44 43 43 44 44 41 41 40
54 54 54 53 54 54 52 52 53 54 54 53 50 49 48 48 48 47 46 45 45 45 45 43 40 43 43 43 41 41 40 40
52 52 53 53 53 51 52 52 52 53 51 50 48 48 48 47 46 45 44 43 44 43 42 42 42 42 42 41 40 39 38 37
51 51 52 52 50 52 50 51 51 50 48 48 47 47 46 45 45 43 43 43 42 42 41 40 40 41 36 36 36 38 37 36
51 50 51 51 51 50 51 51 49 47 47 46 46 45 45 44 44 43 43 42 41 39 40 40 39 39 35 35 33 37 35 34
50 49 48 50 51 50 49 48 47 46 45 45 45 44 43 43 43 42 42 42 41 40 38 38 38 37 33 33 32 35 34 33

GFSFLT1_sfc_temp_036.txt.gz
Temp
74 76 79 82 80 75 71 71 67 60 57 60 61 63 64 66 67 67 68 69 69 70 69 67 69 68 67 65 63 65 64 63
74 73 74 76 72 70 71 67 59 59 59 60 62 62 64 68 71 69 69 70 69 69 70 68 67 65 63 63 63 62 62 63
71 72 72 70 72 72 68 68 65 67 69 71 74 72 72 72 71 69 69 68 69 68 67 67 66 65 63 62 61 60 62 62
70 71 72 69 69 70 71 73 73 74 74 73 72 70 69 70 69 70 69 68 69 68 67 66 64 64 63 61 61 58 56 60
72 72 71 72 72 74 77 76 76 74 73 73 71 74 71 72 70 70 71 67 68 67 66 64 63 63 62 62 62 58 57 54
71 73 74 75 73 74 75 74 74 73 72 73 72 70 70 70 69 67 68 69 66 66 65 64 63 63 62 60 58 57 57 53
72 74 74 73 73 72 71 72 72 72 72 70 69 67 67 68 69 67 68 67 67 66 65 63 62 61 60 59 58 54 54 53
71 71 71 70 70 70 71 72 70 70 70 70 69 67 67 66 65 65 63 64 64 63 62 61 61 60 59 58 56 54 53 52
71 71 71 71 70 71 71 72 70 69 68 67 67 66 69 68 65 64 63 62 62 61 60 60 60 59 59 57 56 55 54 52
71 71 71 71 70 69 69 70 69 65 62 63 62 66 64 63 62 62 62 61 61 60 59 59 59 58 58 57 54 53 54 53
70 70 69 69 70 67 67 67 65 59 60 63 65 64 63 62 62 60 59 59 59 58 57 57 56 56 56 55 53 51 52 51
69 69 68 68 68 68 66 63 60 59 61 61 62 62 62 62 61 59 58 58 57 56 55 54 54 54 53 48 45 46 49 48
69 67 66 66 66 66 63 60 59 59 61 61 61 62 61 60 59 58 57 55 55 54 53 53 53 49 49 50 48 47 46 45
66 65 65 65 64 62 58 57 58 63 63 63 62 60 60 58 56 56 55 54 53 53 52 48 47 47 47 46 46 47 47 47
64 64 65 64 62 58 59 59 61 62 62 62 60 58 57 57 55 54 53 52 51 51 51 48 46 48 48 48 47 47 47 46
63 63 63 63 61 62 62 61 61 61 60 59 58 57 55 54 53 52 52 50 51 51 48 47 48 48 48 45 46 46 45 44
62 63 63 62 61 61 60 60 59 59 58 56 56 53 53 52 51 50 50 50 50 49 48 47 46 48 35 36 36 43 44 42
61 62 61 61 60 60 59 59 58 57 56 54 53 52 51 51 51 50 50 49 49 46 46 47 45 45 35 34 34 42 42 41
62 62 60 61 60 60 59 59 57 55 53 52 52 51 50 50 50 49 49 48 47 45 43 45 45 44 34 33 33 41 41 40

GFSFLT1_sfc_temp_039.txt.gz
Temp
83 83 85 87 84 76 75 73 70 68 65 64 57 56 62 67 67 67 69 70 70 71 70 68 69 69 67 66 64 66 65 65
81 82 83 84 81 75 73 69 69 67 65 65 61 62 65 67 69 71 71 72 71 70 71 69 68 68 65 65 64 62 62 64
78 78 80 81 77 73 71 71 70 73 73 73 72 71 71 74 73 72 73 71 71 71 68 68 67 66 65 64 62 60 61 62
77 77 76 75 73 72 75 73 75 76 76 77 76 76 74 72 72 71 71 71 71 70 68 67 66 66 64 63 62 60 57 59
78 77 73 74 74 77 77 78 78 77 77 76 73 73 72 73 73 74 72 70 70 70 69 67 65 65 63 63 64 60 58 55
77 77 76 76 77 77 78 79 79 77 77 76 74 73 74 74 73 70 69 70 70 69 68 66 64 64 63 61 60 57 58 56
78 78 78 78 78 77 77 78 77 76 75 75 73 71 70 68 69 68 69 70 69 69 68 66 64 62 62 61 61 59 57 55
76 76 76 75 74 74 74 76 74 74 73 73 72 70 68 67 68 68 66 66 66 65 64 62 62 61 60 60 59 58 56 52
75 76 76 74 73 73 74 74 72 73 72 71 70 69 68 68 68 66 65 64 64 63 62 61 60 60 60 59 59 58 56 52
75 76 76 75 74 73 73 73 72 72 70 68 66 64 67 67 65 65 64 63 63 62 60 59 59 58 58 57 57 57 54 53
76 76 75 75 75 73 73 73 71 69 68 66 65 64 66 65 64 62 61 61 61 59 58 58 57 57 57 56 54 53 52 50
75 75 75 75 74 72 71 71 69 67 66 63 62 65 64 64 63 62 61 60 59 58 57 56 56 56 54 51 51 52 49 49
77 75 74 73 71 71 70 68 67 66 64 60 63 64 64 62 62 61 60 58 58 57 56 55 54 52 52 49 47 46 47 45
76 75 72 71 70 70 68 67 65 64 60 65 65 64 62 62 61 59 59 57 56 55 55 53 52 49 48 48 49 48 47 48
75 73 71 71 70 68 67 64 63 61 64 66 64 62 61 60 59 58 57 56 54 54 54 53 50 49 50 50 50 48 47 48
71 70 70 70 68 67 66 64 63 64 64 64 62 62 60 59 57 56 55 54 54 54 53 51 49 50 50 46 47 46 46 46
70 70 70 68 66 65 65 64 63 64 62 61 61 59 58 56 55 54 53 53 53 54 52 49 47 50 35 36 37 43 44 44
69 69 69 68 67 66 63 63 63 60 60 59 58 57 55 55 55 54 53 52 52 50 48 46 46 47 36 35 35 41 43 43
70 70 69 68 68 65 62 62 60 59 58 57 57 55 54 54 53 52 52 51 49 50 47 44 45 46 36 35 34 39 43 43

GFSFLT1_sfc_temp_042.txt.gz
Temp
81 81 81 82 77 73 70 67 64 63 62 61 61 59 59 61 62 62 63 64 65 63 61 60 60 59 57 56 54 54 53 53
79 78 79 78 73 68 68 65 65 63 63 61 61 60 61 62 63 63 64 65 65 62 61 60 59 57 56 56 54 52 51 52
77 77 77 75 72 71 67 66 66 66 69 68 66 64 63 64 65 64 66 65 65 63 60 59 58 56 56 55 53 50 51 51
75 76 75 75 71 68 69 67 67 68 70 70 68 66 65 64 64 63 64 65 65 64 62 59 57 56 53 53 52 51 47 49
77 75 74 74 71 69 70 70 71 72 71 69 66 66 63 65 64 65 63 64 64 65 62 59 57 55 54 53 56 51 49 46
76 75 73 73 70 70 70 72 73 72 71 69 66 66 64 65 64 62 63 61 62 62 61 58 56 55 53 52 51 50 49 47
78 73 73 72 71 71 72 73 72 72 70 69 67 65 64 62 62 60 61 61 60 60 59 55 54 53 52 50 50 49 48 47
75 74 73 72 71 71 72 73 71 70 68 68 67 65 64 61 61 61 59 58 57 55 55 53 52 52 52 50 49 48 48 46
74 74 73 72 71 70 70 72 70 70 68 67 66 64 61 61 61 60 57 56 54 55 54 53 52 52 50 49 48 47 47 45
73 73 72 71 70 68 68 70 70 68 66 64 62 62 61 59 58 59 56 55 58 53 52 51 51 50 50 49 47 46 45 44
73 73 71 71 70 69 68 69 68 67 65 62 62 61 59 59 59 57 56 54 54 52 51 50 50 50 49 46 45 45 44 42
72 73 73 72 71 70 69 69 67 65 63 61 59 58 58 59 58 56 55 54 53 52 51 50 50 49 47 45 44 44 43 42
74 74 72 72 70 69 67 67 65 64 62 59 58 58 59 58 57 56 54 52 52 52 51 50 50 47 46 44 43 43 41 40
74 73 72 71 69 67 67 65 63 63 62 59 58 58 58 58 56 55 54 52 51 50 50 49 48 46 45 44 43 43 42 42
74 73 71 69 68 67 66 63 62 61 61 60 58 58 58 56 55 54 52 52 50 49 49 49 48 46 47 47 47 43 41 41
74 72 70 69 67 67 65 63 60 60 59 59 58 58 57 56 54 52 52 50 50 50 49 48 46 46 48 42 41 39 38 38
72 71 71 69 68 65 64 61 60 60 58 57 58 57 56 53 51 51 50 49 49 49 47 46 44 48 36 37 37 35 37 37
71 70 69 68 67 64 61 62 61 58 57 57 57 56 54 52 52 51 49 48 47 45 45 45 42 42 37 37 35 34 34 34
70 69 68 68 66 65 62 61 59 55 56 56 56 54 52 51 51 50 48 47 45 44 43 43 41 43 37 36 35 32 33 34

GFSFLT1_sfc_temp_045.txt.gz
Temp
73 73 73 72 70 65 63 62 59 58 57 57 56 55 55 55 55 56 59 60 60 57 56 55 55 54 52 52 51 50 49 48
73 72 73 69 65 63 62 60 59 58 56 54 53 52 53 54 56 58 59 59 59 56 55 54 54 52 52 51 49 49 48 47
70 68 69 66 64 62 61 61 60 59 58 57 57 54 55 56 57 57 59 59 59 58 55 53 53 52 51 50 49 47 46 46
69 68 65 63 63 61 61 62 61 61 61 60 58 56 55 54 55 55 57 60 60 58 56 54 53 51 49 48 48 47 44 45
70 67 62 64 62 62 63 63 62 63 65 61 57 55 55 56 56 56 57 59 59 59 57 54 52 51 50 48 51 46 44 42
68 67 64 65 63 62 63 64 63 64 66 63 60 56 56 56 57 57 57 59 60 58 54 51 51 49 48 47 46 45 44 42
69 69 68 65 64 63 63 64 65 64 63 61 59 58 58 58 59 58 58 57 55 53 53 50 49 48 47 45 45 44 43 42
64 65 65 65 64 63 62 62 64 64 61 60 59 57 56 55 56 57 55 51 49 51 50 48 47 47 47 46 44 43 43 40
63 65 64 64 64 62 65 67 68 65 61 59 58 57 54 54 55 54 53 52 52 50 49 48 48 48 46 45 44 42 42 40
62 63 64 64 61 61 64 65 63 60 59 56 55 55 54 53 54 55 53 53 54 51 50 47 47 47 46 43 41 41 40 39
62 62 61 61 61 61 61 61 60 58 56 56 55 54 54 55 53 54 53 52 52 50 48 47 46 45 44 42 40 41 40 38
61 61 63 63 61 61 61 59 60 59 57 54 53 52 55 56 55 53 52 51 51 49 48 47 46 44 43 41 40 41 40 38
62 62 63 62 61 62 59 58 61 59 57 55 55 56 56 56 54 51 52 50 49 48 48 47 47 44 42 42 41 40 39 38
63 63 63 63 63 64 63 61 60 58 57 57 55 55 55 54 54 52 49 48 47 47 48 46 45 43 43 42 41 40 40 39
64 65 65 66 65 64 63 59 58 57 57 56 55 54 54 54 52 50 48 47 47 48 47 46 45 44 45 45 43 39 38 37
63 62 58 58 58 58 60 57 57 57 57 56 54 54 53 51 50 49 48 47 49 48 46 45 44 44 45 40 40 37 36 35
62 60 60 60 59 57 58 57 56 57 55 54 54 52 51 50 49 48 48 47 47 46 45 44 43 45 38 39 37 34 35 34
63 61 60 59 59 58 56 56 56 54 53 53 52 52 51 49 49 49 47 45 44 43 43 43 41 39 38 38 37 33 32 31
61 60 59 56 56 57 56 56 54 53 51 51 49 49 49 49 47 47 45 44 43 42 41 41 40 41 37 37 35 32 32 31

GFSFLT1_sfc_temp_051.txt.gz
Temp
64 65 66 66 63 62 61 60 58 57 56 55 54 54 54 54 54 55 56 56 56 53 51 50 50 49 48 48 47 46 45 45
65 66 66 63 60 59 59 58 56 57 56 54 52 52 52 52 53 55 56 56 55 52 50 50 50 49 48 48 46 46 44 43
64 63 63 63 60 59 58 59 57 58 58 53 54 52 52 52 53 54 55 55 54 53 51 50 49 48 47 46 45 43 42 42
63 63 62 61 59 59 59 59 58 58 57 55 52 52 51 51 51 52 53 54 54 53 51 50 48 47 46 45 44 44 41 42
64 63 62 61 61 61 60 59 58 58 58 56 53 52 50 52 51 51 52 54 54 53 51 49 47 46 45 45 45 42 43 40
63 63 63 63 61 58 58 58 58 59 58 57 54 51 52 51 51 52 51 51 51 52 50 48 46 46 44 44 43 42 41 38
64 65 64 62 58 58 57 58 58 59 58 56 54 53 51 51 50 49 49 48 48 48 49 49 49 48 44 43 42 41 39 37
61 61 60 59 59 58 59 58 58 58 58 56 55 53 53 52 52 51 47 46 46 48 48 47 48 47 46 43 41 39 39 37
59 60 60 59 59 60 60 58 59 58 58 57 56 54 54 52 51 50 49 49 48 47 47 47 48 47 46 43 40 38 38 37
58 59 60 59 59 60 60 59 59 59 58 57 53 53 51 50 50 51 49 49 49 47 47 46 46 46 44 40 38 38 37 36
57 59 59 59 59 60 59 59 59 58 55 54 53 52 52 54 53 50 49 47 44 46 46 46 46 44 43 40 38 38 38 37
56 57 58 59 59 59 58 58 57 54 54 53 51 53 53 53 50 50 48 46 47 46 47 46 45 43 41 39 39 39 39 38
57 58 57 57 57 57 57 57 57 56 54 53 52 54 52 50 50 49 48 46 48 48 47 46 45 42 41 41 41 39 37 36
56 55 57 57 58 58 57 55 53 53 53 52 51 51 50 49 48 48 47 46 47 46 46 45 43 42 41 40 39 39 37 37
55 55 56 57 57 55 54 52 52 52 52 52 50 51 49 49 48 48 45 44 45 45 44 44 44 43 41 41 41 39 38 37
55 54 54 54 53 52 51 50 51 51 52 52 50 51 50 49 47 44 44 45 46 46 45 44 43 42 42 40 40 37 35 34
56 55 54 54 52 50 50 49 50 51 51 50 50 48 48 47 46 45 45 45 46 45 44 43 41 43 41 40 38 34 35 33
53 51 52 51 50 50 48 49 50 49 48 49 48 48 46 45 45 45 45 44 43 42 41 41 40 39 39 40 38 33 32 31
47 48 47 47 47 47 48 48 47 47 47 46 45 45 44 45 46 44 42 41 40 40 39 38 37 38 39 39 38 32 30 30

GFSFLT1_sfc_temp_054.txt.gz
Temp
62 61 60 61 60 60 59 58 57 56 55 54 54 54 54 54 54 54 55 55 54 52 51 50 50 48 47 47 47 45 45 44
63 62 61 60 59 59 59 57 56 56 56 54 52 52 52 52 54 55 55 54 53 52 50 49 48 48 47 47 45 45 43 43
61 61 60 59 59 59 58 58 56 57 57 53 54 52 52 52 53 53 54 54 53 52 50 48 48 47 46 46 45 43 42 42
60 60 60 60 58 58 59 58 57 57 56 54 51 52 51 51 50 51 52 53 53 52 50 48 47 46 45 44 44 44 41 41
61 61 60 61 61 59 59 58 57 57 56 55 53 52 50 51 51 51 52 52 52 51 49 48 46 45 44 44 45 42 41 40
61 62 62 62 60 58 59 58 57 57 56 56 54 52 52 51 51 51 50 50 50 50 48 46 45 44 43 43 43 42 40 40
62 63 61 61 56 56 56 57 57 57 57 56 54 53 52 51 49 50 48 47 47 47 47 45 46 45 44 45 44 43 41 39
59 58 59 57 56 56 57 57 57 57 57 56 55 54 54 52 51 51 47 45 44 45 46 47 47 46 45 43 44 43 41 39
60 60 59 58 57 57 57 57 59 57 58 57 55 56 54 52 51 50 48 47 45 47 44 45 46 47 46 45 43 42 41 38
59 60 59 58 57 57 57 58 59 59 58 57 55 54 52 51 49 48 47 46 48 44 46 46 45 44 45 44 42 41 39 37
55 57 57 58 58 58 58 59 59 59 57 57 56 53 52 50 49 47 48 47 45 45 43 44 44 45 44 43 41 40 37 37
53 55 57 57 57 58 58 59 58 57 56 55 52 50 50 50 50 48 47 46 46 45 45 44 45 44 43 41 40 39 37 37
53 54 55 55 57 57 58 58 58 56 54 51 50 50 50 50 47 48 47 47 47 46 46 45 45 44 42 41 39 40 38 37
53 53 54 56 56 57 56 56 55 52 51 50 50 49 49 48 48 47 48 47 46 45 45 45 44 43 41 41 41 39 37 36
52 52 53 54 54 54 53 51 51 51 50 51 50 50 49 47 49 48 47 45 44 44 44 45 44 44 43 41 40 38 37 36
53 53 52 52 52 50 50 49 48 50 49 49 49 49 50 49 47 45 44 43 42 46 45 44 44 43 42 39 38 36 35 34
52 53 52 51 50 49 48 47 47 50 48 48 49 48 47 46 45 43 43 44 45 45 43 43 41 43 41 40 38 35 34 33
47 47 48 48 47 46 45 47 48 47 47 48 47 47 45 44 45 45 44 43 42 41 40 40 39 38 39 40 39 34 33 32
42 43 43 43 44 44 45 45 45 44 45 45 45 45 45 45 45 43 42 41 40 39 38 37 36 37 38 39 38 34 32 32

GFSFLT1_sfc_temp_057.txt.gz
Temp
66 66 68 70 70 69 69 68 67 66 65 64 65 65 66 65 66 64 64 64 63 64 64 57 63 61 61 62 61 60 61 62
67 67 68 68 69 67 68 66 65 64 63 61 60 60 62 63 63 64 63 65 64 63 61 58 62 62 61 60 59 58 59 59
66 66 66 67 67 67 66 66 65 66 68 66 66 64 63 64 63 63 64 64 64 63 59 61 62 61 59 59 59 57 58 58
65 65 65 66 66 65 66 67 66 66 67 65 63 62 62 61 61 62 63 63 63 61 60 61 60 61 59 58 58 57 56 56
68 66 66 66 66 66 68 67 66 65 64 64 62 64 62 62 61 62 63 59 58 60 61 60 59 60 58 57 57 57 56 54
67 68 69 68 68 64 66 66 66 66 64 65 62 62 64 60 59 60 60 61 61 61 60 58 58 58 56 56 54 54 55 53
68 70 70 69 67 65 65 65 65 65 64 63 62 62 60 57 57 56 58 60 59 59 59 58 57 56 55 52 50 48 47 53
67 68 67 68 65 65 65 66 65 64 63 62 60 59 60 60 59 55 59 57 57 57 57 55 56 55 53 48 46 46 46 47
68 69 69 68 66 66 65 65 66 64 62 62 59 59 61 61 58 55 56 57 59 57 55 55 54 53 48 44 44 44 45 50
67 69 68 68 66 65 64 66 66 65 63 62 59 58 59 58 55 55 59 59 56 52 52 53 52 50 46 44 45 44 45 48
64 66 66 67 66 66 65 66 65 66 64 62 60 59 60 59 57 58 56 55 53 50 52 52 48 46 49 49 46 44 44 49
63 65 66 66 66 65 64 65 66 65 64 62 61 60 60 57 56 54 53 49 49 50 49 47 48 46 46 44 44 44 47 48
64 64 64 64 64 65 64 65 65 64 63 61 60 59 56 55 52 50 48 47 49 50 49 46 45 43 44 43 45 48 48 47
63 63 63 64 64 64 63 62 62 62 59 58 55 54 53 52 50 48 48 48 48 48 45 44 47 46 46 49 50 48 48 48
64 62 62 61 61 61 60 59 58 56 55 54 52 52 51 50 49 48 48 50 47 45 45 44 44 45 47 50 49 49 48 48
60 60 61 62 61 59 58 56 54 54 53 52 51 51 50 49 49 49 46 46 45 44 44 44 46 47 48 47 50 49 48 47
55 57 59 58 56 56 54 54 54 56 54 51 50 50 49 47 46 44 44 44 44 45 45 44 44 45 42 41 43 48 48 46
50 50 52 53 53 53 52 52 53 53 52 51 48 46 46 45 44 45 43 43 45 44 42 41 41 45 41 40 39 48 47 47
48 49 49 50 51 50 51 52 51 49 47 47 47 46 45 47 45 44 44 43 42 43 42 45 46 46 39 38 38 46 46 46

GFSFLT1_sfc_temp_060.txt.gz
Temp
74 75 76 78 77 76 77 76 75 75 75 75 76 76 77 78 77 77 74 72 70 71 71 70 70 71 70 70 68 70 71 72
76 75 77 77 77 76 76 76 75 75 74 74 74 73 75 76 77 74 72 71 70 70 71 69 70 70 68 68 68 66 67 69
75 74 75 75 77 76 76 77 77 76 77 77 76 75 76 77 76 73 73 71 70 70 71 69 66 70 67 67 66 66 67 67
75 73 73 74 75 76 77 78 77 77 78 78 77 76 75 73 73 68 70 70 71 71 68 67 66 69 67 66 66 65 64 64
79 76 75 75 75 77 77 78 78 77 77 77 73 74 72 74 73 70 71 70 70 71 66 65 65 68 68 66 67 66 64 61
78 79 78 78 77 76 76 77 77 77 76 75 74 72 76 76 71 69 67 67 66 66 66 62 63 68 67 66 64 63 59 54
79 81 81 80 79 77 75 75 76 77 75 73 73 72 73 69 68 67 67 67 66 66 64 62 64 67 65 64 62 57 56 49
79 79 80 80 79 77 75 76 76 76 74 73 72 72 70 66 66 68 66 64 62 59 60 60 66 66 64 61 55 54 49 47
80 80 80 80 79 77 75 74 75 76 73 72 72 71 69 65 64 65 67 60 56 57 58 64 66 63 55 55 48 55 54 48
80 82 81 80 79 77 75 73 75 76 73 72 69 67 66 62 64 64 63 58 56 58 63 63 54 53 57 49 48 50 48 48
77 79 81 81 81 79 77 76 76 77 76 71 66 65 65 65 63 64 61 56 59 61 59 51 54 52 51 48 46 46 46 46
75 77 78 79 80 78 76 75 76 77 76 72 65 64 65 64 62 60 58 57 58 58 52 51 48 48 47 46 47 44 43 49
77 76 76 76 76 76 76 75 75 76 75 71 66 64 63 62 60 58 56 54 51 50 48 48 48 46 45 43 43 45 50 53
77 75 75 75 75 75 75 73 73 73 70 64 61 60 58 56 53 50 48 47 46 46 48 46 44 45 44 44 45 51 54 54
76 75 75 73 73 71 69 67 64 61 60 57 54 53 52 50 49 48 47 49 48 49 46 46 44 43 44 46 51 53 54 55
72 73 73 73 71 69 63 58 56 56 54 54 52 52 51 49 48 48 49 49 47 48 45 44 44 45 46 48 51 52 53 54
66 68 69 67 66 65 63 61 59 58 55 52 51 51 50 49 50 50 52 50 49 46 44 43 44 45 42 41 43 51 53 53
62 63 64 63 63 63 61 60 61 59 56 54 54 55 54 54 53 50 46 46 45 43 43 44 44 45 41 41 40 50 52 53
60 61 61 61 62 61 61 61 59 57 56 55 54 53 51 50 50 48 46 45 45 45 46 44 47 53 41 40 38 49 51 52

GFSFLT1_sfc_temp_063.txt.gz
Temp
78 77 79 79 78 77 76 76 76 76 76 77 78 78 78 80 79 80 77 74 73 73 74 72 71 73 71 72 71 72 72 72
80 78 78 79 78 76 76 76 76 77 77 76 76 75 77 78 80 80 78 74 72 71 74 72 70 72 71 71 70 68 69 70
78 78 76 78 77 77 77 78 78 78 80 79 79 79 79 80 80 79 76 72 72 71 72 72 69 71 70 68 68 67 69 69
77 77 76 77 77 77 79 80 80 80 80 81 80 80 79 78 78 78 73 72 72 71 72 70 69 70 68 66 67 67 66 67
80 78 77 77 78 79 80 81 82 81 80 80 77 76 75 77 77 78 72 72 71 72 71 70 69 69 66 65 68 68 67 64
81 81 80 80 79 79 80 80 81 82 80 79 78 76 77 79 78 76 69 70 71 70 68 64 65 67 65 62 65 66 67 65
84 85 84 83 82 80 79 79 80 81 81 78 77 76 76 77 77 72 70 69 69 69 68 64 64 63 61 60 65 65 61 57
83 84 84 83 81 80 80 79 79 80 79 78 76 76 76 74 75 71 68 68 65 66 65 63 61 58 58 60 64 61 52 53
83 84 84 84 83 82 80 79 78 79 77 77 77 76 76 76 67 62 65 65 66 67 66 62 56 56 57 59 58 50 53 49
85 86 85 84 84 82 81 80 80 80 79 78 76 76 74 74 71 70 63 66 63 60 58 56 54 54 54 53 48 49 47 45
84 86 85 85 86 84 83 81 81 80 80 76 73 71 69 70 68 67 65 66 62 58 55 54 51 52 49 50 48 45 44 46
81 83 86 87 86 85 82 81 80 80 81 76 71 68 66 64 65 63 64 64 63 58 56 51 49 47 49 49 47 44 43 43
83 81 82 83 84 85 83 81 80 81 81 79 68 67 64 62 61 61 61 57 54 53 51 48 48 48 46 45 43 44 43 44
83 82 81 80 80 81 81 79 80 80 80 76 66 62 61 55 52 52 50 49 48 47 48 47 47 45 44 44 44 44 45 48
82 82 81 80 79 79 78 74 71 70 66 60 56 54 52 50 49 48 47 48 48 48 47 45 45 44 44 45 45 46 49 50
79 80 80 78 76 70 65 60 59 59 56 54 52 51 51 50 49 48 48 48 48 47 45 45 45 45 45 45 46 46 48 49
74 77 78 75 72 67 60 56 55 55 53 51 51 51 50 49 49 48 47 47 47 47 46 44 43 45 41 40 42 45 47 50
71 73 72 70 69 66 61 59 58 56 54 54 54 54 53 53 53 51 50 49 47 44 43 43 44 47 41 41 40 49 51 52
67 68 67 68 68 67 65 65 63 61 60 60 58 57 56 56 55 53 50 47 45 46 46 47 49 51 43 40 39 49 50 51

GFSFLT1_sfc_temp_066.txt.gz
Temp
68 69 69 70 68 66 67 67 67 68 70 69 69 69 69 69 69 71 69 68 68 67 66 64 64 63 62 62 61 62 60 60
71 72 71 69 69 68 69 68 70 70 69 68 68 67 69 69 72 71 70 69 68 66 64 65 63 62 61 61 61 60 59 59
73 73 71 69 70 70 71 72 72 72 72 72 70 70 70 71 70 72 71 68 68 68 66 66 63 62 61 61 60 57 59 58
73 72 72 71 70 70 72 72 72 73 74 74 73 72 70 70 71 69 70 68 68 68 66 65 63 63 61 61 60 60 58 58
75 74 71 71 71 72 74 74 74 74 74 74 71 70 68 69 68 71 70 69 67 69 66 64 62 61 60 60 62 60 59 56
75 74 74 74 74 72 73 75 76 75 75 73 72 68 69 70 69 68 68 66 65 67 65 63 60 59 57 59 59 58 58 56
79 78 77 76 76 74 73 74 75 76 75 73 70 69 68 67 67 66 65 65 65 65 65 61 60 57 57 56 56 55 52 49
78 78 77 76 74 74 74 74 75 75 74 73 71 70 67 68 68 68 64 63 62 61 61 58 58 58 57 56 54 52 49 46
79 80 78 77 76 75 74 75 74 76 74 73 72 72 71 70 69 65 64 63 61 61 61 60 59 56 54 53 50 47 47 48
80 81 79 78 77 75 74 75 76 76 74 73 71 72 71 70 69 65 62 62 62 61 60 57 54 54 53 49 47 46 46 45
80 82 80 81 79 77 75 76 77 76 75 73 73 71 70 70 66 64 63 61 59 57 55 54 53 50 48 47 47 45 44 44
79 80 81 82 81 80 77 77 78 77 76 74 72 70 66 63 61 61 61 60 59 57 55 51 49 47 47 46 45 43 42 43
79 79 80 80 80 81 78 78 77 77 76 70 69 65 62 61 59 58 58 55 55 53 51 49 48 47 47 44 43 44 43 42
79 78 77 78 79 79 77 75 75 75 68 66 65 61 59 54 52 51 50 50 49 48 48 47 46 45 44 44 44 44 44 44
79 78 77 77 77 77 73 67 65 62 61 57 53 52 50 49 49 49 48 48 48 47 47 45 44 44 44 45 45 44 45 46
77 77 76 76 69 63 62 60 59 57 54 52 50 50 49 48 47 48 47 47 47 46 45 45 44 44 45 44 45 45 45 45
75 77 75 70 63 59 57 55 54 54 51 49 49 49 49 47 48 46 46 45 45 45 44 44 43 45 41 41 42 44 45 45
72 74 71 64 61 58 54 53 53 52 51 51 50 50 49 48 48 47 46 45 45 44 43 43 43 44 40 41 39 43 43 43
70 69 66 64 62 59 58 57 55 54 54 54 53 52 51 51 51 50 47 45 43 43 43 44 45 48 42 41 39 40 41 42

GFSFLT1_sfc_temp_069.txt.gz
Temp
59 58 59 60 60 60 61 63 61 61 64 62 61 61 62 63 62 64 64 64 65 64 62 61 61 60 59 59 59 58 57 57
61 60 60 60 59 59 61 61 62 61 60 60 62 61 60 60 61 65 63 63 63 62 60 60 59 60 59 58 57 57 56 56
62 62 61 60 59 61 62 63 63 63 65 65 61 64 60 61 63 63 66 63 63 62 61 60 59 58 58 57 57 55 58 55
62 62 61 61 61 61 63 64 65 66 67 64 62 61 61 62 61 65 63 65 65 63 61 60 59 58 58 56 56 55 57 56
64 63 61 62 63 64 66 67 67 67 67 67 65 65 63 64 63 62 64 65 64 64 64 62 60 60 58 56 58 58 56 54
66 65 64 65 66 66 67 68 68 68 68 68 66 64 64 62 62 64 62 64 65 64 63 61 58 59 58 58 57 56 54 52
68 69 69 67 68 68 68 68 68 69 69 68 68 68 62 62 62 62 63 62 63 63 64 62 59 58 57 55 54 54 52 49
68 67 67 68 67 67 68 69 68 69 69 69 67 68 62 63 61 63 60 61 63 62 61 57 57 55 54 54 54 51 49 47
69 69 68 68 69 68 69 69 69 70 69 70 69 67 66 62 64 62 63 62 62 59 57 55 55 54 53 53 50 47 47 46
71 71 71 70 70 70 68 70 70 71 70 67 69 69 65 66 66 61 63 61 59 58 57 55 53 52 52 50 48 47 47 46
71 72 72 73 72 72 71 71 71 72 71 70 67 67 65 64 65 59 59 59 57 56 55 54 53 51 49 48 46 46 45 44
68 68 71 74 74 73 71 71 72 71 72 68 68 62 62 61 60 59 60 58 57 55 54 53 50 48 48 47 45 45 44 43
69 68 68 66 73 73 71 71 72 72 72 68 65 60 60 59 59 60 58 57 56 55 52 50 48 47 47 45 44 44 43 43
68 68 68 68 67 69 71 68 66 66 63 60 60 58 59 58 54 54 54 52 51 50 49 48 47 46 44 44 44 44 44 44
66 66 67 64 61 59 58 57 62 63 58 54 53 52 51 50 50 49 48 49 48 47 47 46 45 45 45 45 45 44 44 45
67 65 62 58 55 54 53 53 53 53 52 50 49 49 49 49 48 47 47 47 46 46 45 44 45 45 45 44 45 44 44 44
67 64 61 58 55 52 52 51 51 51 50 49 49 48 47 47 46 46 45 45 45 45 44 43 43 45 40 41 43 43 45 44
63 63 59 56 53 52 49 49 50 50 49 49 49 48 47 46 46 45 44 44 44 43 42 43 42 43 41 41 40 41 39 38
60 58 56 54 52 51 51 51 51 50 49 49 49 48 47 47 47 45 44 43 41 40 42 43 43 45 40 40 38 38 37 37

GFSFLT1_sfc_temp_072.txt.gz
Temp
61 60 60 60 59 60 60 60 60 62 62 61 61 62 62 63 62 62 63 63 62 61 60 59 58 58 57 57 57 56 55 54
58 56 56 57 59 60 60 60 61 61 62 60 61 61 57 58 59 62 61 61 62 60 60 58 58 59 58 57 56 55 54 53
56 55 55 55 56 57 58 59 59 59 61 61 62 59 57 62 60 61 63 61 61 60 59 59 57 57 56 55 55 53 54 53
56 56 55 55 56 56 58 60 60 61 61 60 58 58 58 58 57 59 61 62 62 62 60 59 58 56 56 54 54 54 52 53
58 58 56 55 56 58 60 62 62 62 62 63 60 63 60 63 60 60 60 62 62 63 62 59 57 56 55 55 55 54 54 53
58 59 59 59 59 59 61 62 63 64 64 64 62 61 62 59 58 59 60 61 62 63 62 60 58 58 57 56 54 54 54 52
61 62 62 61 61 61 61 61 63 64 64 64 63 63 58 58 60 59 57 60 62 62 62 62 60 57 56 56 55 55 53 52
61 60 60 61 61 61 62 62 62 65 65 64 63 63 58 61 60 61 60 60 60 61 61 59 57 57 55 55 54 54 52 51
62 62 62 62 62 63 63 63 64 65 65 65 65 64 65 62 63 63 62 62 62 63 61 59 56 56 54 53 53 50 49 49
64 65 65 64 64 64 64 65 65 66 66 66 66 64 64 64 63 61 61 60 61 58 58 57 56 55 54 52 50 48 48 47
66 66 66 67 67 66 66 66 67 67 67 67 66 66 63 64 60 57 58 57 56 57 55 54 54 53 52 51 48 47 47 46
66 67 68 68 69 68 67 67 67 66 68 67 66 66 66 62 59 58 58 58 58 58 56 54 54 53 51 49 47 46 46 45
65 68 68 68 68 69 68 68 68 66 62 62 61 60 60 60 60 59 59 58 57 56 55 54 52 50 49 47 45 45 44 44
62 62 64 69 68 69 69 68 65 63 61 61 59 59 60 59 59 58 57 56 56 53 52 50 49 48 46 45 45 45 45 45
63 62 59 58 58 62 66 65 64 64 61 57 56 55 56 57 56 54 54 54 51 50 50 49 47 45 45 45 46 45 45 45
63 60 55 54 55 55 55 54 53 55 53 52 50 50 50 49 49 49 49 48 48 48 46 45 45 45 45 45 45 44 44 44
63 61 56 53 54 53 53 52 51 52 51 49 49 48 48 48 47 46 46 45 45 45 44 44 43 45 40 41 43 44 44 44
59 60 58 53 53 52 51 51 52 51 49 49 49 48 47 46 46 45 44 44 44 43 43 43 43 43 41 41 40 43 41 39
59 57 53 51 52 52 51 52 51 50 49 49 48 48 46 46 46 45 44 43 42 42 42 43 43 44 40 39 37 38 35 34

GFSFLT1_sfc_temp_075.txt.gz
Temp
58 58 59 59 59 59 59 59 59 59 59 59 60 61 61 62 63 62 60 60 60 58 57 57 58 57 56 56 56 54 54 53
57 59 59 59 59 59 59 58 58 59 58 58 58 58 59 60 62 61 60 61 60 59 57 56 57 58 58 57 55 55 52 51
54 53 57 57 57 59 59 58 59 61 62 62 62 61 59 60 58 59 61 59 59 59 58 58 57 57 55 54 54 52 52 51
53 53 53 57 55 58 58 58 58 60 64 61 60 60 59 57 55 56 58 60 59 59 58 57 55 55 55 53 54 54 51 52
55 53 51 52 55 55 57 58 58 59 59 59 59 57 56 57 57 57 58 59 59 59 58 57 56 55 53 55 54 53 52 50
54 54 54 54 55 55 56 57 60 61 60 58 57 56 57 56 56 57 56 58 59 60 59 57 57 56 57 56 54 52 53 53
57 58 57 55 53 54 56 57 58 60 60 58 58 56 55 55 55 56 55 57 58 59 59 59 59 58 55 55 55 53 52 52
56 56 56 56 54 55 56 57 58 60 60 60 59 59 56 57 58 59 57 56 57 59 59 59 59 59 57 56 55 54 52 51
58 58 58 58 57 57 58 58 59 61 61 61 61 61 61 60 61 61 59 58 59 60 59 60 60 58 57 56 55 54 52 52
59 60 59 59 59 58 58 60 61 61 61 62 62 61 61 62 60 58 58 56 59 58 60 60 58 55 56 55 53 52 51 50
61 61 61 61 61 61 61 61 61 62 63 63 63 63 61 61 58 57 57 57 57 56 56 55 54 54 53 53 51 50 50 49
62 62 63 63 63 62 61 62 62 62 63 63 61 59 59 59 58 56 56 56 57 57 57 56 54 53 52 52 50 49 48 47
64 64 64 63 64 64 63 63 63 62 62 62 61 62 62 61 59 58 58 58 58 58 58 59 54 53 52 51 48 48 47 46
63 64 64 64 64 65 65 64 63 63 62 63 63 62 62 61 58 58 58 59 59 59 57 55 54 52 50 49 48 47 46 46
62 63 64 65 65 65 65 63 62 62 62 62 61 61 59 59 59 59 59 59 58 54 55 53 50 48 47 47 47 45 45 45
59 60 58 56 57 58 61 60 60 61 61 60 58 54 54 54 55 57 54 53 53 51 49 47 46 46 46 46 45 45 44 43
59 58 55 54 54 52 52 53 53 55 53 53 51 51 50 49 49 48 47 47 47 47 45 45 44 45 42 41 43 44 44 43
58 59 57 54 52 54 54 52 53 52 52 50 50 49 48 47 47 46 45 46 46 44 43 44 43 42 40 41 41 44 42 40
60 60 54 52 52 54 52 52 52 51 50 50 50 49 47 47 46 45 44 44 43 43 43 43 43 42 39 39 38 39 37 36

GFSFLT1_sfc_temp_078.txt.gz
Temp
59 58 59 59 60 60 59 58 59 59 59 59 59 59 60 61 61 61 61 58 58 57 57 56 55 55 55 55 55 54 54 53
59 59 57 58 59 59 59 58 58 58 57 57 57 58 59 60 61 61 58 60 59 58 56 55 56 56 55 55 55 55 52 52
57 58 57 57 58 59 59 58 58 59 60 59 58 58 58 61 61 61 62 59 58 58 56 56 56 55 54 54 54 51 52 51
55 56 57 57 57 58 59 59 59 60 61 58 58 58 57 57 56 57 57 58 58 58 57 56 56 55 55 53 53 53 51 50
56 56 56 57 57 60 60 60 59 61 62 60 58 59 58 59 56 57 57 58 58 60 59 58 57 55 53 54 54 52 52 49
53 54 55 57 58 56 55 57 57 59 60 62 59 56 58 57 57 56 56 57 58 59 58 56 55 55 55 53 52 52 52 51
55 55 54 53 55 54 53 55 56 58 58 56 58 55 56 55 55 56 57 56 57 57 58 57 57 56 54 55 53 52 52 51
54 53 52 52 51 52 53 54 55 57 57 58 56 57 55 56 56 57 53 55 54 56 56 55 56 57 56 55 54 53 52 53
55 55 55 53 53 53 54 54 55 56 57 58 59 56 58 57 56 55 54 54 55 56 57 57 58 58 57 56 56 55 54 53
55 56 57 56 54 54 54 55 57 57 57 58 59 57 56 56 56 55 55 55 56 55 56 57 56 56 56 55 56 55 54 54
56 56 57 58 58 57 56 57 57 58 58 58 59 57 56 56 56 55 55 56 56 56 56 56 55 54 55 55 55 54 52 52
56 57 58 59 59 57 56 57 57 57 59 59 56 56 56 57 58 59 58 58 57 58 59 58 56 55 55 54 54 52 51 51
57 58 59 58 58 58 57 58 58 58 58 59 59 60 60 60 61 62 61 59 58 58 57 57 57 56 54 53 52 50 50 48
56 57 57 59 59 59 59 59 58 59 59 60 60 60 61 61 60 60 58 58 57 57 58 57 57 54 52 52 52 50 49 49
56 56 57 59 60 60 60 59 59 59 59 59 59 59 60 59 56 55 57 57 57 57 57 55 53 52 51 50 49 47 47 48
56 56 56 58 57 57 59 59 59 59 59 59 59 60 60 58 55 55 55 55 57 56 52 50 49 48 48 47 47 46 45 45
57 57 56 55 55 54 54 55 56 58 58 57 59 56 55 54 53 52 52 51 50 50 49 48 47 46 41 42 44 45 45 44
61 60 60 59 53 52 51 52 51 55 56 55 53 52 51 50 49 48 47 46 46 45 45 45 44 43 41 41 41 44 43 40
59 60 57 51 51 50 52 53 52 52 52 51 50 50 48 47 47 46 44 44 44 43 43 43 43 41 39 39 38 38 36 35

GFSFLT1_sfc_temp_081.txt.gz
Temp
63 62 62 62 61 61 59 58 60 61 60 60 60 60 60 61 65 66 65 66 66 66 66 60 61 61 65 65 64 64 65 65
64 61 61 60 60 60 59 57 58 59 58 58 58 58 59 59 62 63 65 66 66 65 66 64 62 65 64 63 64 62 62 63
60 60 59 59 59 60 59 59 59 60 59 59 60 59 59 60 60 61 65 66 65 66 65 65 65 66 64 63 63 63 65 63
58 58 57 58 58 60 59 60 60 60 60 58 58 58 58 58 59 60 65 65 67 67 66 66 65 65 65 63 64 64 64 63
62 59 57 58 60 60 61 60 60 61 59 59 58 60 58 61 60 64 67 66 66 67 66 66 65 65 65 64 64 64 64 61
63 60 61 60 61 60 60 61 61 62 61 61 59 59 62 65 64 65 65 65 66 67 66 65 65 65 65 64 63 62 63 63
65 64 62 59 61 60 60 60 62 63 63 63 61 62 63 62 62 65 65 66 65 66 66 66 65 65 64 63 63 63 62 62
63 60 57 57 58 58 58 59 60 62 62 62 63 63 64 64 65 66 65 64 64 65 65 65 64 65 65 65 64 62 62 62
63 63 61 59 56 57 57 59 61 62 62 62 62 64 64 65 64 65 64 66 66 66 65 66 65 66 65 65 64 64 63 61
63 63 63 62 59 57 57 61 62 62 62 63 63 63 64 64 64 65 64 65 65 64 65 65 65 65 65 65 63 63 62 61
63 63 63 63 63 61 60 61 62 63 63 63 63 63 64 65 64 63 63 64 64 64 63 65 65 65 65 64 62 63 60 58
63 64 65 64 64 63 61 62 62 62 63 63 63 64 64 64 63 63 64 65 65 64 64 65 65 64 63 60 59 57 56 56
64 64 64 64 64 63 63 63 63 63 62 62 61 62 63 63 62 64 65 65 65 64 65 64 65 62 60 56 57 55 54 53
64 63 63 63 64 63 64 63 63 63 62 60 59 60 60 61 62 63 66 65 65 63 63 63 63 63 61 57 56 55 53 53
64 64 64 64 64 64 64 63 63 63 63 62 61 60 63 62 62 63 65 65 65 64 62 61 62 62 59 57 55 54 53 52
63 65 65 65 64 63 64 64 63 63 63 63 62 63 63 65 65 63 64 63 64 64 63 62 61 57 54 53 52 50 49 47
65 65 64 63 63 64 63 63 63 63 63 62 64 64 65 64 63 61 59 59 61 61 59 57 52 51 45 44 47 47 46 45
65 66 65 65 65 63 63 63 63 62 62 63 63 63 63 63 61 56 56 55 52 50 48 48 47 45 40 41 41 46 44 40
66 66 66 65 63 63 62 63 62 62 62 62 62 60 57 52 52 51 48 47 46 45 45 44 43 41 39 39 38 40 38 36

GFSFLT1_sfc_temp_084.txt.gz
Temp
75 69 71 71 68 63 62 61 60 63 61 61 61 61 60 61 66 68 68 69 67 71 72 69 73 71 71 72 71 72 73 73
76 68 66 67 67 61 59 58 62 63 59 59 59 58 59 60 63 65 66 71 71 72 73 72 73 71 72 71 72 69 70 71
73 68 67 66 66 62 59 59 59 60 62 61 60 60 60 61 63 65 66 66 68 72 72 71 70 69 68 69 70 69 71 70
71 68 67 67 67 63 60 60 60 61 61 60 59 60 60 59 62 62 66 68 70 71 70 71 68 73 71 70 69 70 69 70
73 70 67 67 67 66 63 61 62 62 62 60 58 58 58 61 64 64 65 69 70 73 73 72 72 73 72 71 72 71 70 68
75 72 70 70 68 66 64 62 62 62 62 60 59 58 62 64 63 62 63 67 70 72 73 72 72 73 72 71 71 69 71 69
78 75 71 71 68 65 65 62 62 61 62 62 61 61 60 60 61 61 66 71 73 72 74 72 72 72 71 71 71 70 69 70
77 74 71 70 66 64 64 63 62 62 61 62 64 63 62 60 65 64 65 72 73 72 72 71 72 71 71 71 70 70 70 69
77 76 74 70 68 67 63 63 62 63 63 64 66 68 65 65 64 64 71 72 73 72 71 71 72 72 71 71 71 71 70 69
77 77 74 71 69 68 63 63 65 66 65 66 67 68 69 70 69 69 71 73 73 72 72 71 71 72 72 72 70 70 70 69
78 77 75 73 71 69 66 67 68 71 69 68 69 69 69 71 71 70 71 72 72 72 71 71 72 72 72 71 71 71 69 70
77 78 77 76 74 71 68 69 71 72 71 71 69 69 69 70 70 70 71 71 71 71 71 71 71 71 72 71 70 70 69 68
77 77 77 75 74 73 70 71 72 72 71 71 70 70 70 69 69 70 71 70 71 71 71 72 71 72 72 71 69 69 65 63
76 75 75 75 75 74 73 71 71 72 71 69 69 68 69 68 68 69 70 71 72 72 72 71 70 70 71 70 70 67 64 59
75 75 75 76 75 75 74 73 72 71 71 69 68 68 68 69 69 69 69 71 71 71 71 70 70 71 71 70 68 64 61 60
74 74 75 76 75 75 75 74 73 72 70 69 68 68 69 69 69 69 68 69 71 71 71 71 70 68 68 68 66 61 61 57
76 75 76 75 74 75 74 73 72 72 71 70 71 70 70 70 70 70 69 68 69 69 68 68 68 68 50 45 53 55 51 48
72 75 76 76 75 74 74 74 74 71 71 71 71 71 71 71 71 71 70 67 66 65 66 66 61 53 41 41 42 47 44 41
70 73 75 77 78 76 76 76 73 71 71 71 71 71 70 71 71 71 67 63 59 53 48 47 46 42 39 39 38 40 37 37

GFSFLT1_sfc_temp_090.txt.gz
Temp
83 82 80 79 76 66 63 63 63 62 60 59 59 58 58 58 59 59 60 60 61 61 60 61 62 63 63 63 63 64 63 63
83 80 77 76 69 65 61 62 61 60 58 57 56 56 56 57 57 59 59 59 61 60 59 59 61 61 63 63 63 63 63 64
80 77 74 73 68 63 61 62 62 60 60 59 59 58 58 57 57 58 59 59 60 60 59 60 61 61 61 62 62 60 61 62
78 75 72 71 66 62 61 63 63 61 60 59 58 58 57 56 57 57 59 59 60 61 60 63 60 62 62 61 62 61 59 61
79 76 71 69 68 64 63 63 63 61 61 59 58 57 55 57 58 61 64 63 63 65 64 65 64 65 63 63 65 63 62 60
79 77 73 71 70 65 63 63 63 62 61 60 58 57 59 58 59 60 62 63 64 65 66 65 63 64 64 62 63 63 62 60
81 79 75 72 71 67 63 62 62 62 61 61 59 58 58 57 58 59 61 63 63 63 65 63 63 64 63 65 62 63 62 61
80 76 75 73 69 66 64 63 61 62 61 60 60 59 59 59 59 61 61 62 61 61 63 62 64 65 66 65 63 62 62 60
80 78 75 74 70 67 65 64 62 62 61 61 61 61 59 60 61 62 62 62 63 63 63 64 65 66 64 64 62 62 62 61
81 79 76 74 71 68 64 64 63 62 61 62 61 61 61 62 62 63 62 62 63 62 63 63 63 64 64 63 63 62 62 62
80 81 76 75 73 69 65 65 63 63 62 62 63 62 62 63 63 62 62 63 63 63 63 63 64 65 65 64 63 63 63 63
80 80 77 76 74 70 66 65 65 63 63 63 63 63 62 63 63 63 63 63 63 63 64 64 65 65 64 64 64 63 63 63
81 81 77 76 73 71 68 66 66 65 64 63 63 63 64 63 63 63 64 63 64 64 65 66 67 66 65 64 63 64 63 61
81 80 79 76 73 73 70 68 68 68 65 64 63 63 64 63 64 64 65 65 64 65 66 66 67 66 66 65 65 64 63 63
79 79 79 77 75 74 72 69 69 69 67 65 63 63 64 65 65 66 66 66 66 65 66 67 67 67 67 66 66 64 63 63
78 77 77 78 76 74 74 71 70 70 70 67 65 65 65 65 66 66 66 66 67 67 66 67 67 67 67 65 65 64 63 61
79 79 79 78 78 76 75 73 70 71 70 69 69 68 67 66 66 66 66 65 66 66 66 66 65 67 55 51 57 60 59 56
76 75 77 78 77 76 75 74 73 71 70 71 70 70 68 67 68 67 66 64 64 64 64 64 64 63 43 43 42 51 47 43
73 72 72 73 75 77 77 78 75 71 71 71 71 70 68 68 68 67 66 65 63 63 63 62 50 43 39 39 39 40 37 37

GFSFLT1_sfc_temp_096.txt.gz
Temp
67 66 64 61 60 60 59 59 59 59 60 59 59 59 60 62 63 63 64 64 63 61 60 62 63 62 61 62 62 61 60 60
68 64 61 59 59 58 58 58 59 59 58 57 57 57 57 58 60 62 63 64 63 61 61 61 64 63 63 63 62 61 59 59
65 62 58 58 57 58 57 58 58 59 59 58 57 57 56 57 57 59 62 63 62 62 61 61 64 63 62 62 62 57 58 60
63 59 57 56 56 56 57 57 58 59 58 57 56 55 55 54 55 56 58 62 62 62 61 62 63 63 62 63 63 62 60 57
64 60 56 56 56 57 57 58 59 59 57 57 55 54 53 55 55 55 56 59 61 61 61 62 62 63 61 62 62 61 62 59
64 60 57 57 56 56 57 58 60 59 57 57 56 55 56 55 55 55 55 56 58 60 60 60 59 60 59 60 58 57 58 55
66 64 59 57 56 56 56 58 59 58 58 57 56 55 55 54 54 54 55 56 56 57 58 58 59 58 57 58 58 58 57 57
64 59 55 56 55 55 56 57 57 58 57 57 54 55 54 55 55 55 55 55 55 55 56 55 56 58 58 59 58 58 57 56
63 60 57 56 56 56 57 57 58 58 57 57 56 55 56 57 57 57 57 57 56 56 57 57 57 59 59 58 59 59 58 58
63 62 59 57 56 56 57 57 59 59 57 58 58 56 57 58 58 59 58 58 59 59 59 58 59 58 59 60 59 58 58 58
64 63 61 59 58 58 58 58 58 60 59 59 59 57 58 59 59 56 58 58 60 57 58 58 59 59 60 61 59 58 58 58
64 64 63 62 59 58 57 58 58 60 60 60 59 59 59 59 59 59 58 59 59 58 59 58 59 60 60 59 60 60 58 57
66 65 64 60 58 58 58 58 58 59 60 61 60 60 60 59 59 59 60 59 59 60 59 59 58 59 58 58 59 60 59 57
64 66 64 60 59 59 59 59 59 60 60 60 60 59 59 59 59 60 60 59 58 59 60 59 59 59 58 59 61 60 59 59
62 64 64 62 60 59 59 59 59 60 60 60 59 59 60 59 60 60 60 59 58 58 59 59 60 60 61 60 60 59 59 60
63 61 63 62 60 60 60 59 59 59 59 60 61 61 61 61 60 60 60 59 58 59 59 59 59 60 61 60 61 60 60 59
61 62 62 63 62 60 60 59 59 60 59 59 61 61 61 60 60 59 59 58 59 58 58 58 57 60 52 48 54 57 56 56
57 56 57 57 57 61 60 59 60 59 59 59 59 60 60 61 61 60 59 59 59 57 57 57 57 58 48 48 46 58 56 55
51 50 51 51 52 56 58 64 62 60 60 59 60 59 59 60 60 61 60 60 59 58 57 58 58 57 46 46 44 50 41 40

GFSFLT1_sfc_temp_099.txt.gz
Temp
66 66 68 63 60 60 59 59 58 58 58 58 58 60 62 62 63 63 63 64 62 60 58 57 58 59 60 61 59 58 60 60
61 61 61 59 59 58 58 57 59 60 58 58 58 58 58 60 62 63 63 63 62 60 58 57 59 60 61 61 60 58 55 61
59 57 58 58 58 58 57 58 60 60 60 59 56 57 57 58 59 61 63 63 62 61 59 57 61 61 60 60 61 55 55 60
58 57 57 57 58 57 57 60 60 60 57 55 55 55 55 55 56 58 59 63 62 61 60 59 61 62 60 62 62 61 58 56
61 58 57 58 57 57 58 59 59 59 57 55 55 55 53 55 55 56 57 60 62 62 61 60 62 62 61 62 63 62 62 58
60 59 59 58 58 56 58 59 58 57 57 54 54 55 56 55 55 55 56 57 60 61 60 59 59 60 62 62 59 58 62 56
63 63 60 58 58 57 58 59 58 58 57 54 53 55 54 53 54 54 55 56 57 59 59 58 59 58 59 59 57 58 56 56
60 59 56 57 56 57 58 58 58 57 56 54 54 54 55 55 54 55 54 55 55 56 58 57 57 57 59 59 58 57 57 55
62 61 57 58 57 57 57 57 57 57 56 54 56 55 56 56 56 56 56 56 56 56 57 57 57 57 58 57 57 57 57 56
62 61 57 57 57 56 56 58 58 57 56 53 53 54 55 56 55 57 57 56 56 56 57 57 58 57 57 56 55 56 58 57
63 60 57 57 57 56 57 59 58 58 57 54 54 54 55 56 58 56 56 57 56 55 56 57 57 57 57 56 56 57 57 57
61 61 59 58 58 57 57 58 58 58 58 55 54 54 55 55 56 57 56 57 57 57 57 57 57 57 57 57 58 58 57 57
61 62 58 58 56 57 56 58 58 60 59 56 55 55 55 55 55 56 58 56 56 58 57 57 57 56 57 57 57 59 57 56
62 62 60 57 57 57 56 57 59 60 60 57 56 55 55 55 55 57 58 58 57 57 58 57 57 57 57 58 58 59 58 58
57 60 61 58 58 57 57 57 58 59 60 59 56 55 56 56 58 58 58 59 57 56 58 58 57 57 58 58 58 58 58 59
53 57 59 58 57 57 57 56 57 58 58 58 58 57 57 57 58 58 58 58 58 57 57 57 58 58 58 57 57 57 55 55
51 52 52 56 57 56 57 56 57 57 57 57 58 58 58 57 57 58 58 58 58 57 57 57 55 58 50 48 53 56 54 54
48 48 48 49 51 54 56 57 58 57 57 58 58 58 57 59 59 58 58 57 57 56 56 56 56 56 47 46 45 56 55 55
46 47 47 48 49 50 51 57 58 58 58 58 58 58 57 58 59 59 58 58 57 57 55 55 55 55 46 45 44 51 52 47

GFSFLT1_sfc_temp_102.txt.gz
Temp
64 63 66 67 63 60 60 60 59 58 58 59 59 60 62 62 62 62 63 63 61 60 59 58 59 58 57 57 57 59 59 57
62 60 59 57 57 58 59 59 58 58 59 59 58 59 60 61 62 63 63 63 61 60 58 57 57 57 57 58 56 57 57 59
60 57 55 56 57 58 60 59 59 59 60 60 59 59 58 59 61 62 63 63 61 60 59 57 57 56 56 57 58 57 57 59
60 57 54 54 57 59 60 58 60 60 60 58 56 56 56 56 57 59 61 63 61 61 59 57 57 57 56 57 58 59 56 58
59 58 54 55 57 60 60 58 59 60 59 57 56 54 53 55 57 57 58 61 61 61 59 57 56 58 58 60 61 61 60 56
60 59 58 57 57 59 59 60 59 59 58 57 56 57 57 55 55 56 57 58 60 61 59 57 56 58 61 61 60 59 61 59
61 63 57 56 58 58 60 59 58 58 57 57 55 53 54 54 54 54 56 57 59 60 60 59 57 58 59 61 59 59 58 60
59 61 54 55 57 57 59 58 56 57 55 55 52 53 54 54 55 55 55 55 56 59 59 57 57 59 58 58 57 57 57 57
59 61 59 56 57 57 58 58 57 57 56 55 53 53 54 54 55 56 56 56 56 57 58 57 57 58 58 57 57 56 56 56
58 62 61 57 57 57 58 59 58 57 57 55 53 53 54 54 54 55 56 57 56 56 57 57 57 57 57 57 57 57 56 55
57 62 57 59 59 59 59 59 58 57 57 56 53 53 53 53 53 53 56 56 56 56 56 56 56 57 57 57 56 57 55 55
56 61 60 58 59 58 57 59 59 57 57 56 52 52 52 53 53 54 55 56 56 56 57 57 56 56 57 57 57 56 55 55
58 59 59 57 57 57 57 59 58 58 57 55 52 52 53 52 53 54 56 54 56 56 56 57 57 57 57 57 56 57 56 56
55 54 57 56 57 57 58 58 58 58 58 56 53 52 52 52 53 53 55 54 54 56 57 56 56 56 56 57 57 57 57 57
52 52 57 57 57 58 57 57 58 59 59 57 54 52 53 53 53 53 54 55 56 54 56 56 56 56 56 56 57 57 56 58
50 49 50 55 57 57 57 57 58 58 58 57 56 53 54 53 53 53 53 54 55 56 55 55 55 55 56 56 57 57 57 57
48 48 48 49 50 56 56 56 57 58 57 57 57 56 54 53 53 53 54 55 56 56 56 55 53 56 48 46 52 55 55 55
45 45 45 46 48 49 53 57 57 57 57 57 57 57 56 54 54 55 56 56 56 56 56 56 56 56 46 46 45 54 53 53
43 43 43 44 47 47 50 56 57 57 56 57 57 57 57 57 56 56 57 57 56 55 55 55 55 55 45 45 43 52 51 51

GFSFLT1_sfc_temp_105.txt.gz
Temp
76 75 76 77 77 74 71 69 68 66 64 63 64 63 63 65 64 65 66 64 65 65 63 61 61 59 58 58 58 58 60 60
73 72 73 71 70 69 68 67 67 64 61 60 61 61 62 62 64 64 64 64 64 63 62 60 62 59 57 58 58 57 58 65
71 71 71 68 69 67 66 67 65 67 65 64 65 64 63 63 64 64 64 64 64 62 60 58 59 59 57 57 58 56 57 60
68 68 69 68 66 65 65 67 64 68 67 65 65 62 61 60 60 62 63 65 62 62 59 58 57 57 56 57 58 58 56 58
67 67 68 68 66 66 65 65 63 66 65 63 63 63 61 61 61 62 63 63 62 62 60 59 58 58 56 57 58 58 57 56
64 65 68 69 67 65 65 63 63 64 64 64 63 61 63 62 63 61 61 62 62 61 60 58 58 58 57 58 57 57 59 59
64 67 68 69 65 65 64 60 61 62 63 62 59 59 62 62 60 59 60 59 59 61 60 59 58 58 57 58 59 59 60 62
63 64 65 66 67 64 63 60 60 60 61 59 59 60 62 61 59 58 58 58 59 60 59 57 57 58 59 59 58 61 63 62
63 64 64 65 67 65 62 61 59 60 59 58 58 62 63 64 62 60 60 63 60 63 60 58 58 57 58 58 58 58 59 60
62 64 64 65 66 64 61 60 60 59 58 58 58 62 63 63 62 59 59 61 61 62 60 58 58 58 57 57 57 57 57 58
61 63 64 65 65 64 61 61 59 59 58 61 60 60 62 63 62 58 60 62 61 61 58 58 57 58 57 57 56 57 57 56
60 62 62 61 62 64 61 61 60 59 59 61 56 58 61 61 60 60 61 61 60 59 58 57 57 57 56 55 55 56 56 56
57 56 56 59 60 60 60 60 59 58 59 58 56 58 60 60 60 60 61 59 59 59 58 57 57 57 57 56 55 56 56 55
53 52 52 56 59 58 58 58 58 58 59 56 55 56 58 59 59 60 61 61 57 59 58 57 57 57 57 57 57 57 57 57
50 49 49 51 57 58 58 58 58 58 58 57 54 55 58 59 60 60 60 61 60 58 58 57 57 57 57 58 58 57 58 58
47 46 45 47 49 55 58 58 58 58 58 57 55 56 57 59 59 60 60 60 61 61 59 59 58 57 57 56 57 57 56 56
45 45 43 43 45 48 55 56 57 58 58 57 57 56 57 58 59 59 59 60 61 60 59 59 59 60 47 46 53 56 56 55
42 41 40 41 43 46 49 54 58 57 57 57 57 56 56 57 59 59 59 59 60 60 59 58 57 59 45 45 45 62 58 56
40 39 39 39 42 44 46 54 57 57 57 58 58 57 56 57 58 58 58 59 57 58 58 57 56 56 44 44 43 60 61 61

GFSFLT1_sfc_temp_108.txt.gz
Temp
88 88 88 89 90 88 86 84 80 79 78 73 70 69 68 72 75 75 74 73 71 72 70 66 63 60 58 59 59 59 59 59
87 82 84 84 84 83 82 81 79 77 70 67 65 63 66 67 70 72 74 72 73 69 66 64 61 59 59 60 59 57 57 59
81 80 81 80 81 81 80 80 79 77 71 69 71 66 67 68 68 72 71 72 70 66 64 63 61 59 60 61 59 57 58 61
77 77 78 79 79 79 79 80 79 77 76 68 70 68 67 64 65 67 68 70 68 65 64 63 61 60 58 58 58 58 56 60
76 76 77 78 78 79 79 79 79 77 76 67 68 68 65 70 67 68 66 68 66 66 66 65 61 60 58 58 59 58 59 57
73 75 77 79 79 77 76 76 77 74 73 68 70 72 75 75 73 70 64 65 66 66 63 60 59 59 59 59 58 58 58 58
74 77 77 78 79 77 75 73 74 71 67 68 70 73 74 72 68 64 62 63 64 63 62 61 60 60 59 59 59 58 57 58
72 75 76 75 75 75 75 73 71 68 64 66 70 74 72 72 71 69 63 64 63 63 60 60 59 59 62 61 60 59 59 58
72 73 74 75 74 75 74 73 68 66 63 63 68 70 74 74 72 70 67 66 68 61 60 62 60 60 60 60 59 59 59 59
71 72 72 72 71 71 72 70 67 65 62 61 63 67 72 72 72 70 68 68 67 66 60 59 59 59 59 57 57 57 58 59
69 69 68 69 69 67 70 70 65 65 62 60 60 67 71 72 71 64 66 65 67 65 63 60 59 57 58 57 57 58 57 58
67 66 66 65 67 62 70 67 64 63 61 59 61 67 70 70 68 64 63 66 67 66 66 60 58 57 57 57 56 56 56 57
66 64 61 61 55 51 65 64 63 63 61 60 62 65 68 66 65 63 63 64 66 66 63 59 57 57 57 56 56 56 56 56
63 62 58 54 49 49 60 61 62 61 61 59 60 60 64 63 64 64 64 64 66 65 64 59 57 57 56 56 56 56 56 57
55 55 55 49 47 47 50 59 60 59 59 59 58 58 62 63 64 63 64 63 63 62 62 63 61 59 59 58 57 56 55 56
49 48 48 45 44 45 46 58 58 58 57 57 56 58 62 64 64 63 64 63 62 64 62 62 61 60 59 58 57 57 56 57
48 45 44 42 41 42 45 55 57 58 57 56 57 58 60 61 63 63 62 62 63 62 60 59 59 60 46 46 53 56 57 57
43 40 39 39 40 41 41 47 57 57 56 57 58 60 59 60 62 62 61 61 63 62 63 61 59 59 44 45 45 59 55 56
41 39 37 37 39 41 41 48 54 54 53 55 57 57 59 61 61 61 62 63 62 63 62 61 61 60 43 44 43 59 55 56